Meteo Giornale » Osservazioni meteo Ungheria » Balaton

ore: 19:15 - Osservazioni Meteo Balaton
Lat. 46° 41' N Lon. 17° 10' E Alt. 125 metri s.l.m.

sereno Europe/Budapest

16 °C

Sereno

Temp. 24 Ore

10 °C

20 °C

Ovest/Nord-Ovest

9.3 Km/h

Dew point 10 °C

Umidità 67 %

Visibilità  10 Km

Il sole sorge alle ore 06:32

Il sole tramonta alle ore 18:58

Data e Ora Cielo e Fenomeni T °C DP °C Um. % Pres. hPa Vis. km Vento km/h
Oggi h: 19:15 sereno Sereno 16 10 67 1025 10 O/NO 9.3
Oggi h: 18:45 sereno Sereno 17 11 67 1025 10 O/NO 7.4
Oggi h: 17:45 sereno Sereno 19 10 55 1024 10 N 9.3
Oggi h: 17:15 sereno Sereno 19 10 55 1025 10 NO 14.8
Oggi h: 16:45 sereno Sereno 19 10 55 1025 10 N 13
Oggi h: 16:15 sereno Sereno 20 9 49 1025 10 N 9.3
Oggi h: 15:45 sereno Sereno 19 9 52 1025 10 N 11.1
Oggi h: 15:15 poco_nuvoloso Poco Nuvoloso 19 9 52 1025 10 N 11.1
Oggi h: 14:45 poco_nuvoloso Poco Nuvoloso 19 9 52 1025 10 N 11.1
Oggi h: 13:15 sereno Sereno 19 8 48 1025 10 N 13
Oggi h: 12:45 sereno Sereno 18 8 51 1026 10 N/NE 14.8
Oggi h: 12:15 sereno Sereno 18 8 51 1026 10 N/NE 14.8
Oggi h: 11:45 sereno Sereno 18 7 48 1026 10 N 13
Oggi h: 11:15 sereno Sereno 16 7 55 1026 10 N/NO 18.5
Oggi h: 10:45 sereno Sereno 16 7 55 1026 10 NO 20.3
Oggi h: 10:15 sereno Sereno 15 7 58 1026 10 N/NO 18.5
Oggi h: 09:45 sereno Sereno 14 7 62 1026 10 N/NO 22.2
Oggi h: 09:15 sereno Sereno 14 7 62 1026 10 N/NO 18.5
Oggi h: 08:45 sereno Sereno 13 7 66 1025 10 N/NO 20.3
Oggi h: 08:15 sereno Sereno 12 7 71 1025 10 N/NO 13
Oggi h: 07:45 sereno Sereno 12 7 71 1025 10 N/NO 18.5
Oggi h: 07:15 sereno Sereno 11 7 76 1024 10 N/NO 18.5
Oggi h: 06:45 sereno Sereno 10 7 81 1024 10 N/NO 20.3
Oggi h: 06:15 sereno Sereno 11 7 76 1024 10 N 9.3
Oggi h: 05:45 sereno Sereno 11 6 71 1024 10 N/NO 18.5
Oggi h: 05:15 sereno Sereno 12 6 66 1024 10 N 18.5
Oggi h: 04:45 sereno Sereno 13 7 66 1024 10 N 14.8
Oggi h: 04:15 sereno Sereno 13 7 66 1024 10 N 14.8
Oggi h: 03:45 sereno Sereno 13 7 66 1023 10 N 18.5
Oggi h: 03:15 sereno Sereno 14 8 67 1023 10 N 14.8
Oggi h: 02:45 sereno Sereno 15 8 62 1023 10 N/NE 11.1
Oggi h: 02:15 sereno Sereno 15 8 62 1023 10 N/NE 16.7
Oggi h: 01:45 sereno Sereno 16 9 63 1023 10 N/NE 16.7
Oggi h: 01:15 sereno Sereno 16 9 63 1023 10 N 16.7
Oggi h: 00:45 sereno Sereno 17 9 59 1022 10 N/NE 13
Oggi h: 00:15 sereno Sereno 17 9 59 1022 10 N 24
Ieri h: 23:45 sereno Sereno 17 9 59 1022 10 N 27.8
Ieri h: 23:15 sereno Sereno 18 10 59 1021 10 N 31.5
Ieri h: 22:45 sereno Sereno 18 10 59 1021 10 N 31.5
Ieri h: 22:15 sereno Sereno 18 11 63 1021 10 N 27.8
Ieri h: 21:45 sereno Sereno 19 12 63 1021 10 N 31.5
Ieri h: 21:15 sereno Sereno 19 12 63 1021 10 N 31.5
Ieri h: 20:45 sereno Sereno 20 14 68 1020 10 N 27.8